Weather History for South Bend, IN

Change the Weather History Date:

Saturday, February 4, 2012

  Actual Average Record
Temperature  
Mean Temperature 35 °F 25 °F  
Max Temperature 42 °F 32 °F 56 °F (1928)
Min Temperature 28 °F 18 °F -14 °F (1912)
Degree Days  
Heating Degree Days 30 40  
Month to date heating degree days 117 160  
Since 1 July heating degree days 3254 3808  
Cooling Degree Days 0 0  
Month to date cooling degree days 0 0  
Year to date cooling degree days 0 0  
Moisture  
Dew Point 29 °F    
Average Humidity 77    
Maximum Humidity 89    
Minimum Humidity 64    
Precipitation  
Precipitation 0.06 in 0.06 in 1.25 in (1971)
Month to date precipitation 0.06 0.25  
Year to date precipitation 3.03 2.54  
Sea Level Pressure  
Sea Level Pressure 30.28 in    
Wind  
Wind Speed 6 mph (ENE)    
Max Wind Speed 14 mph    
Max Gust Speed 18 mph    
Visibility 6 miles    
Events Fog , Snow    
T = Trace of Precipitation, MM = Missing Value Source: NWS Daily Summary

Daily Weather History Graph

Daily Weather History Graph

Search for Another Location

Airport:

Trip Planner

Search our weather history database for the weather conditions in past years. The results will help you decide how hot, cold, wet, or windy it might be!

Date:

Astronomy

Feb. 04, 2012 Rise Set
Actual Time 7:54 AM EST 6:04 PM EST
Civil Twilight 7:25 AM EST 6:33 PM EST
Nautical Twilight 6:52 AM EST 7:06 PM EST
Astronomical Twilight 6:19 AM EST 7:38 PM EST
Moon 2:59 PM EST (2/4) 5:21 AM EST (2/4)
Length of Visible Light 11h 07m
Length of Day
10h 09m
Waxing Gibbous, 89% of the Moon is Illuminated
Feb 4
Waxing Gibbous
Feb 7
Full
Feb 14
Last Quarter
Feb 21
New
Feb 29
First Quarter

Hourly Weather History & Observations

Time (EST) Temp. Windchill Dew Point Humidity Pressure Visibility Wind Dir Wind Speed Gust Speed Precip Events Conditions
12:54 AM 36.0 °F 29.6 °F 28.9 °F 76% 30.38 in 6.0 mi East 8.1 mph - N/A   Haze
1:03 AM 35.6 °F 29.2 °F 28.4 °F 75% 30.35 in 6.0 mi East 8.1 mph - N/A   Haze
1:54 AM 35.1 °F 29.3 °F 28.9 °F 78% 30.38 in 6.0 mi East 6.9 mph - N/A   Haze
2:54 AM 35.1 °F 27.9 °F 28.9 °F 78% 30.37 in 6.0 mi East 9.2 mph - N/A   Haze
3:54 AM 35.1 °F 31.0 °F 28.9 °F 78% 30.36 in 5.0 mi East 4.6 mph - N/A   Haze
4:24 AM 35.6 °F 32.8 °F 28.4 °F 75% 30.35 in 2.0 mi East 3.5 mph - 0.00 in Snow Light Snow
4:35 AM 33.8 °F 30.8 °F 30.2 °F 87% 30.35 in 1.5 mi ENE 3.5 mph - 0.00 in Snow Light Snow
4:54 AM 33.1 °F 30.0 °F 30.0 °F 89% 30.37 in 1.0 mi East 3.5 mph - 0.01 in Snow Light Snow
5:06 AM 33.8 °F 30.8 °F 30.2 °F 87% 30.34 in 0.8 mi ENE 3.5 mph - 0.01 in Snow Light Snow
5:20 AM 33.8 °F 30.8 °F 30.2 °F 87% 30.33 in 0.5 mi East 3.5 mph - 0.03 in Fog , Snow Snow
5:25 AM 33.8 °F 28.6 °F 30.2 °F 87% 30.33 in 1.0 mi East 5.8 mph - 0.04 in Snow Light Snow
5:46 AM 33.8 °F 27.0 °F 30.2 °F 87% 30.30 in 1.0 mi East 8.1 mph - 0.05 in Snow Light Snow
5:54 AM 33.1 °F 26.9 °F 30.0 °F 89% 30.33 in 1.0 mi East 6.9 mph - 0.05 in Snow Light Snow
6:13 AM 33.8 °F 27.7 °F 30.2 °F 87% 30.29 in 1.0 mi East 6.9 mph - 0.00 in   Overcast
6:54 AM 33.1 °F 28.7 °F 30.0 °F 89% 30.32 in 1.0 mi NE 4.6 mph - 0.00 in   Overcast
7:01 AM 33.8 °F 27.7 °F 30.2 °F 87% 30.30 in 2.0 mi NE 6.9 mph - N/A   Overcast
7:40 AM 33.8 °F 28.6 °F 28.4 °F 81% 30.31 in 5.0 mi ENE 5.8 mph - N/A   Overcast
7:54 AM 33.1 °F 26.9 °F 28.9 °F 85% 30.32 in 6.0 mi East 6.9 mph - N/A   Overcast
8:54 AM 33.1 °F 26.9 °F 28.9 °F 85% 30.32 in 6.0 mi East 6.9 mph - N/A   Overcast
9:54 AM 34.0 °F 28.8 °F 28.0 °F 79% 30.31 in 7.0 mi ENE 5.8 mph - N/A   Overcast
10:54 AM 35.1 °F 26.9 °F 28.9 °F 78% 30.29 in 7.0 mi East 11.5 mph - N/A   Overcast
11:54 AM 37.0 °F 29.8 °F 30.9 °F 79% 30.28 in 7.0 mi East 10.4 mph - N/A   Overcast
12:54 PM 39.0 °F 32.3 °F 32.0 °F 76% 30.26 in 8.0 mi ESE 10.4 mph - N/A   Scattered Clouds
1:24 PM 39.2 °F 34.2 °F 30.2 °F 70% 30.23 in 8.0 mi East 6.9 mph - N/A   Mostly Cloudy
1:54 PM 41.0 °F 36.4 °F 32.0 °F 70% 30.24 in 9.0 mi ENE 6.9 mph - N/A   Overcast
2:54 PM 42.1 °F 37.7 °F 32.0 °F 67% 30.21 in 9.0 mi East 6.9 mph - N/A   Overcast
3:54 PM 39.9 °F 37.8 °F 30.0 °F 68% 30.22 in 10.0 mi Variable 3.5 mph - N/A   Overcast
4:31 PM 41.0 °F 39.0 °F 30.2 °F 65% 30.19 in 10.0 mi East 3.5 mph - N/A   Partly Cloudy
4:54 PM 41.0 °F 38.0 °F 30.0 °F 65% 30.20 in 10.0 mi East 4.6 mph - N/A   Clear
5:54 PM 39.9 °F 37.8 °F 28.9 °F 65% 30.19 in 10.0 mi East 3.5 mph - N/A   Clear
6:54 PM 37.9 °F - 28.9 °F 70% 30.19 in 10.0 mi Calm Calm - N/A   Mostly Cloudy
7:54 PM 36.0 °F 30.3 °F 30.0 °F 79% 30.20 in 9.0 mi NNW 6.9 mph - N/A   Mostly Cloudy
8:54 PM 35.1 °F 31.0 °F 28.9 °F 78% 30.21 in 9.0 mi NW 4.6 mph - N/A   Clear
9:54 PM 34.0 °F 29.8 °F 28.9 °F 82% 30.21 in 10.0 mi NNW 4.6 mph - N/A   Clear
10:54 PM 30.0 °F 25.2 °F 26.1 °F 85% 30.20 in 9.0 mi North 4.6 mph - N/A   Clear
11:54 PM 28.0 °F 20.8 °F 25.0 °F 88% 30.20 in 8.0 mi North 6.9 mph - N/A   Clear